www.pogodaiklimat.ru

Погода и климат >> Архив погоды >> Канада >> Thunder Bay


ПОГОДА в Thunder Bay

  • Прогноз погоды в Thunder Bay
  • Монитор погоды в Thunder Bay
  • Климат города

АРХИВ ПОГОДЫ в Thunder Bay

Время (UTC), дата Ветер
(напр.,м/с)
 
Видим.   Явления Облачность Т
(С)
Тd
(С)
f
(%)
Тe
(С)
Тes
(С)
Комфортность P
(гПа)
Po
(гПа)
Тmin
(С)
Tmax
(С)
R
(мм)
R24
(мм)
S
(см)
18 16.06 Ю 3 4800 м гроза 10/10 600 м
[]
+17.6 +16.3 92 +18 +18 1011.2 987.2 +9.2 +19.4 2
21 16.06 Ю 3 16 км {осадки} 9/9 1000 м
[]
+16.3 +15.8 97 +16 +17 1011.4 987.4
00 17.06 С 2 16 км 10/10 1500 м
[]
+15.6 +15.1 97 +16 +16 1010.6 986.6 +10.7 +19.4 10
03 17.06 СВ 2 16 км 9/0 2000 м
[]
+14.6 +14.3 98 +14 +14 1010.7 986.7
06 17.06 СВ 4 4000 м дымка 10/10 50 м
[]
+12.2 +12.2 100 +10 +10 1010.5 986.5 +10.7 +19.4 211
09 17.06 ЮВ 2 6000 м слаб. дождь {осадки} 10/10 100 м
[]
+14.5 +14.5 100 +14 +14 1009.2 985.3
12 17.06 СВ 1 3200 м слаб. дождь {осадки} 10/10 50 м
[]
+14.7 +14.7 100 +15 +15 1009.6 985.7 +11.8 +19.4 7
15 17.06 СЗ 3 16 км {осадки} 10/10 100 м
[]
+17.9 +17.7 99 +18 +18 1009.4 985.5
18 17.06 З 3 16 км 9/9 300 м
[]
+24.6 +21.2 81 +31 +33 очень
душно
1009.3 985.5 +11.8 +24.6 0.5
21 17.06 СВ 3 16 км слаб. дождь 10/10 1000 м
[]
+20.3 +19.2 93 +24 +24 комфорт 1009.4 985.6
00 18.06 СВ 3 16 км 10/10 100 м
[]
+16.0 +15.5 97 +16 +16 1009.4 985.5 +12.0 +24.7
03 18.06 ЮЗ 2 8000 м слаб. дождь {осадки} 10/10 1000 м
[]
+16.1 +16.1 100 +16 +16 1011.9 988.0
06 18.06 З 2 3200 м дымка 3/3 1500 м
[]
+16.1 +16.1 100 +16 +16 1011.6 987.8 +12.0 +24.7 12
09 18.06 ЮЗ 3 16 км 9/0
[]
+14.6 +14.6 100 +14 +14 1012.0 988.1
12 18.06 ЮЗ 3 16 км 10/0
[]
+16.0 +15.5 97 +16 +17 1014.7 990.7 +14.0 +24.7
15 18.06 С 3 16 км ясно +21.6 +13.5 60 +24 +34 комфорт 1015.9 992.0
18 18.06 С 5 16 км 3/3 1500 м
[]
+25.1 +9.1 36 +26 +32 жарко 1016.7 992.8 +14.0 +25.2
21 18.06 СЗ 5 16 км ясно +26.6 +9.6 34 +27 +34 жарко 1016.5 992.6
00 19.06 С 3 16 км ясно +25.6 +9.3 36 +26 +28 жарко 1016.4 992.5 +14.0 +26.9
03 19.06 СВ 2 16 км ясно +15.7 +11.0 74 +16 +16 1018.8 994.8
06 19.06 З 2 16 км ясно +11.3 +10.5 95 +10 +10 1019.2 995.2 +11.0 +26.9 18
09 19.06 З 2 16 км ясно +8.7 +8.7 100 +7 +7 1019.5 995.4
12 19.06 ЮЗ 2 16 км ясно +13.3 +12.1 92 +12 +14 1020.1 996.1 +8.3 +26.9
15 19.06 В 4 16 км ясно +21.5 +13.0 58 +24 +33 комфорт 1019.5 995.5
18 19.06 В 5 16 км ясно +24.8 +12.7 47 +27 +37 жарко 1018.3 994.3 +8.3 +24.8
21 19.06 Ю 5 16 км ясно +25.3 +10.8 40 +26 +32 жарко 1016.4 992.4
00 20.06 Ю 4 16 км ясно +22.9 +10.5 45 +25 +26 комфорт 1015.8 991.8 +8.3 +25.8
03 20.06 З 1 16 км ясно +15.7 +12.2 80 +17 +17 1015.2 991.3
06 20.06 З 1 16 км 9/0
[]
+11.8 +11.5 98 +11 +11 1014.6 990.7 +8.3 +25.8
09 20.06 З 2 16 км ясно +10.5 +10.4 99 +9 +9 1013.5 989.6
12 20.06 З 1 16 км ясно +15.6 +12.6 82 +16 +19 1013.1 989.3 +9.7 +25.8
15 20.06 ЮВ 2 16 км ясно +24.1 +15.1 57 +27 +39 жарко 1013.0 989.2
18 20.06 ЮВ 8 16 км ясно +20.5 +12.8 61 +22 +26 комфорт 1013.8 989.8 +9.7 +25.5
21 20.06 В 6 16 км ясно +20.4 +13.8 66 +23 +27 комфорт 1014.3 990.3
00 21.06 В 3 16 км ясно +19.1 +12.9 67 +20 +22 1014.4 990.4 +9.7 +25.5
03 21.06 ЮВ 1 16 км ясно +14.0 +12.1 88 +15 +15 1015.7 991.8
06 21.06 СВ 1 16 км ясно +10.1 +10.1 100 +10 +10 1015.7 991.6 +9.7 +25.5 181
09 21.06 С 2 16 км ясно +8.0 +8.0 100 +6 +6 1016.1 992.0
12 21.06 В 4 16 км ясно +13.4 +9.7 78 +12 +13 1016.9 992.8 +6.9 +25.5
15 21.06 В 4 16 км ясно +16.2 +8.6 61 +16 +24 1017.2 993.1
18 21.06 В 6 16 км ясно +19.2 +10.5 57 +20 +28 1016.0 991.9 +6.9 +19.5
21 21.06 В 6 16 км ясно +20.3 +11.5 57 +22 +26 комфорт 1015.4 991.3
00 22.06 В 4 16 км ясно +19.2 +10.7 58 +20 +22 1014.0 990.0 +6.9 +20.6
03 22.06 СВ 3 16 км ясно +13.3 +9.6 78 +12 +12 1014.7 990.6
06 22.06 СЗ 1 16 км 10/0
[]
+12.1 +10.0 87 +12 +12 1014.1 990.1 +6.9 +20.6
09 22.06 СЗ 2 16 км ясно +10.0 +9.6 97 +9 +9 1013.3 989.3
12 22.06 СЗ 1 16 км 10/0
[]
+12.7 +10.8 88 +13 +14 1013.5 989.5 +9.6 +20.6
15 22.06 В 3 16 км 3/0
[]
+20.6 +12.7 61 +23 +33 комфорт 1012.6 988.7
18 22.06 В 4 16 км 9/0
[]
+22.4 +12.6 54 +25 +32 комфорт 1011.5 987.6 +9.6 +22.7
21 22.06 В 4 16 км 9/0
[]
+23.2 +11.1 46 +25 +30 комфорт 1010.7 986.8
00 23.06 В 4 16 км 10/0
[]
+14.1 +8.1 67 +13 +13 1010.8 986.8 +9.6 +23.2
03 23.06 СВ 4 16 км 10/0
[]
+13.7 +7.7 67 +12 +12 1010.6 986.7
06 23.06 С 1 16 км 10/0 2000 м
[]
+11.9 +9.3 84 +13 +13 1010.7 986.8 +9.6 +23.2
09 23.06 Ю 1 16 км 10/0
[]
+10.6 +9.5 93 +10 +10 1009.3 985.4
12 23.06 ЮВ 1 16 км 9/0
[]
+13.2 +11.6 90 +14 +15 1009.3 985.3 +9.7 +23.2
15 23.06 ЮВ 2 16 км 10/10 1500 м
[]
+14.5 +10.7 78 +14 +14 1009.1 985.1

 

Местоположение метеостанции Thunder Bay (Канада): широта 48.37 долгота -89.32 высота над уровнем моря 199 м.

В архиве по умолчанию представлена погода в Thunder Bay за последнюю неделю. Архивные данные за месяц целиком и за предыдущие месяцы, начиная с января 2011 года, Вы можете получить, выбрав интересующий диапазон дат из раскрывающегося списка и нажав кнопку "Ввод!".


*Определитесь, кто Вы:
робот инопланетянин человек

Внимание! Время в таблицах - всемирное. Для получения местного времени необходимо прибавить поправку, которая в Thunder Bay равна -8 ч.

Смотрите также архив погоды в соседних городах и на ближайших метеорологических станциях:

Погода в Thunder Bay (Канада) (1 км)
Погода в Welcome Island (Канада) (16 км)
Погода в Trowbridge (Канада) (35 км)
Погода в Upsala (Канада) (111 км)
Погода в Cameron Falls (Канада) (113 км)
Погода в Katatota Island (Канада) (167 км)
Погода в Atikokan (Канада) (176 км)
Погода в Armstrong (Канада) (216 км)
Погода в Pukaskwa (Канада) (224 км)
Погода в Geraldton (Канада) (234 км)

Пояснения к столбцам:

Ветер - указаны скорость ветра в м/с - средняя за 10 мин, порывы в срок и между сроками (в фигурных скобках) и направление, откуда дует ветер: С - северный, СВ - северо-восточный, В - восточный, ЮВ - юго-восточный, Ю - южный, ЮЗ - юго-западный, З - западный, СЗ - северо-западный.
Видимость - горизонтальная дальность видимости в метрах или километрах. При видимости от 1 до 10 км при отсутствии осадков обычно наблюдается дымка, при ухудшении видимости до 1 км и менее - туман. В сухую погоду видимость может ухудшаться дымом, пылью или мглою.
Явления - указаны атмосферные явления, наблюдавшиеся в срок или в последний час перед сроком; фигурными скобками обозначены явления, наблюдавшиеся между сроками (за 1-3 часа до срока); квадратными скобками обозначены град или гололедные отложения с указанием их диаметра в мм.
Облачность - указаны через наклонную черту общая и нижняя облачность в баллах и высота нижней границы облаков в метрах; квадратными скобками обозначены формы облаков: Ci - перистые, Cs - перисто-слоистые, Cc - перисто-кучевые, Ac - высококучевые, As - высокослоистые, Sc - слоисто-кучевые, Ns - слоисто-дождевые, Cu - кучевые, Cb - кучево-дождевые. Подробнее классификацию облаков см. в Атласе облаков (PDF).
T - Температура воздуха - температура, измеренная на высоте 2 м над землей.
Td - Температура точки росы - температура, при понижении до которой содержащийся в воздухе водяной пар достигнет насыщения.
f - Относительная влажность воздуха - влажноcть воздуха, измеренная на высоте 2 м над землей.
Te - Эффективная температура - температура, которую ощущает одетый по сезону человек в тени. Характеристика душности погоды. При расчете учитывается влияние влажности воздуха и скорости ветра на теплоощущения человека.
Tes - Эффективная температура на солнце - температура, которую ощущает человек, с поправкой на солнечный нагрев. Характеристика знойности погоды. Зависит от высоты солнца над горизонтом, облачности и скорости ветра. Ночью, в пасмурную погоду, а также при ветре 12 м/с и более поправка равна нулю.
P - Атмосферное давление - приведенное к уровню моря атмосферное давление.
Po - Атмосферное давление - измеренное на уровне метеостанции атмосферное давление.
Tmin - Минимальная температура - минимум температуры воздуха на высоте 2 м над землей.
Tmax - Максимальная температура - максимум температуры воздуха на высоте 2 м над землей.
R - Количество осадков - Количество выпавших осадков за период времени, мм. При наведении курсора мыши на число - период времени, за который выпало указанное количество осадков.
R24 - Количество осадков - Количество выпавших осадков за 24 часа, мм.
S - Снежный покров - Высота снежного покрова, см. При наведении курсора мыши на число - состояние снежного покрова и степень покрытия местности в баллах.